This is the latest recevied weather packets stored in our database for station/object K5YNC. If no packets are shown the sender has not sent any weather packets the latest 10 day(s).
| Time | Temp. | Humidity | Pressure | Rain* | Wind** | Luminosity | Snow |
|---|---|---|---|---|---|---|---|
| 1777561770 | 15.56° C | 81% | 1018 hPa | 0 mm | - | 183 W/m² | - |
| 1777561466 | 15.56° C | 82% | 1018.2 hPa | 0 mm | - | 179 W/m² | - |
| 1777561162 | 15.56° C | 81% | 1018 hPa | 0 mm | - | 197 W/m² | - |
| 1777560862 | 15.56° C | 83% | 1017.7 hPa | 0 mm | - | 192 W/m² | - |
| 1777560560 | 15° C | 82% | 1017.9 hPa | 0 mm | - | 180 W/m² | - |
| 1777560258 | 15° C | 83% | 1018 hPa | 0 mm | - | 214 W/m² | - |
| 1777559955 | 15° C | 84% | 1018 hPa | 0 mm | - | 237 W/m² | - |
| 1777559655 | 15° C | 86% | 1017.9 hPa | 0 mm | - | 203 W/m² | - |
| 1777559354 | 14.44° C | 86% | 1017.7 hPa | 0 mm | - | 194 W/m² | - |
| 1777559049 | 13.89° C | 86% | 1018 hPa | 0 mm | - | 133 W/m² | - |
| 1777558744 | 13.89° C | 86% | 1017.6 hPa | 0 mm | - | 100 W/m² | - |
| 1777558440 | 13.89° C | 87% | 1017.7 hPa | 0 mm | - | 100 W/m² | - |
| 1777558137 | 13.89° C | 87% | 1017.8 hPa | 0 mm | - | 111 W/m² | - |
| 1777557833 | 13.89° C | 87% | 1017.5 hPa | 0 mm | - | 122 W/m² | - |
| 1777557530 | 13.89° C | 88% | 1017.7 hPa | 0 mm | - | 134 W/m² | - |
| 1777557227 | 13.33° C | 88% | 1017.8 hPa | 0 mm | - | 133 W/m² | - |
| 1777556922 | 13.33° C | 88% | 1017.9 hPa | 0 mm | - | 123 W/m² | - |
| 1777556618 | 13.33° C | 89% | 1018 hPa | 0 mm | - | 112 W/m² | - |
| 1777556313 | 12.78° C | 89% | 1018.3 hPa | 0 mm | - | 112 W/m² | - |
| 1777556010 | 12.78° C | 90% | 1018 hPa | 0 mm | - | 114 W/m² | - |
| 1777555710 | 12.78° C | 91% | 1017.9 hPa | 0 mm | - | 117 W/m² | - |
| 1777555407 | 12.78° C | 92% | 1017.8 hPa | 0 mm | - | 127 W/m² | - |
| 1777555103 | 12.78° C | 93% | 1017.9 hPa | 0 mm | - | 120 W/m² | - |
| 1777554801 | 12.22° C | 93% | 1018 hPa | 0 mm | - | 105 W/m² | - |
| 1777554497 | 12.22° C | 93% | 1018 hPa | 0 mm | - | 90 W/m² | - |
* Rain latest hour (hover to see other rain measurements)
** Current wind speed in m/s (hover to see current wind gust speed)